カタログに戻る

STARLINK-4791

運用中通信VLEO
NORAD 53936·PAYLOAD·🇺🇸 United States

打ち上げ Sep 24, 2022 から Cape Canaveral Space Force Station

Loading…

次のパス (今後24時間)

TLE

最新Source: CelesTrak SupGP

元期: Sep 14, 2026, 21:57 UTC

1 53936C 22119BC  26257.91506944 -.00023110  00000+0 -74330-3 0  2576
2 53936  53.1570 155.7758 0001349  91.9188 171.4775 15.31707418    10

AllMySatでSTARLINK-4791をリアルタイム追跡

Download on the App Store